Location: Peebles
(55.6412°N, 3.1714°W)
Time: 05:04:23
(UTC+01:00)

deb Agena D - Pass Details

Date: 10 July 2022
Orbit: 797 x 980 km, 99.8° (Epoch: 16 August)

Event Time Altitude Azimuth Distance (km) Brightness Sun altitude
Rises 01:44:03 0° 15° (NNE) 3,401 11.3 -11.9°
Reaches altitude 10° 01:47:58 10° 346° (NNW) 2,502 9.9 -11.8°
Maximum altitude 01:50:00 12° 324° (NW) 2,370 9.2 -11.8°
Drops below altitude 10° 01:52:04 10° 303° (WNW) 2,543 9.0 -11.8°
Sets 01:56:07 0° 274° (W) 3,525 9.4 -11.7°
